Flag for U.S.A. Weather past 2 weeks in Tacoma, Washington, U.S.A.

Now
40 °F

Fog.


Feels Like: 40 °F
Forecast: 39 / 48 °F
Wind: No wind

Location: Tacoma Narrows Airport

Current Time: Jan 30, 2015 at 9:47:42 PM

Latest Report: Jan 30, 2015 at 8:53 PM


Visibility: 0 mi

Pressure: 30.27 "Hg

Humidity: 100%

Dew point: 40 °F

Location of TacomaLocation

Historic Weather in Tacoma — Graph

°F

Tacoma temperature yesterday

Maximum temperature yesterday: 50 °F (at 1:53 PM)
Minimum temperature yesterday: 40 °F (at 11:53 PM)
Average temperature yesterday: 45 °F

Past Weeks' High & Low Weather Summary

 TemperatureHumidityPressure
High61 °F (Jan 26, 1:53 PM)100% (Jan 21, 8:53 AM)30.46 "Hg (Jan 21, 8:53 AM)
Low35 °F (Jan 21, 5:00 AM)60% (Jan 26, 2:53 PM)29.61 "Hg (Jan 17, 10:53 PM)
Average47 °F88%30.21 "Hg
* Reported Jan 15 7:53 PM — Jan 30 7:53 PM, Tacoma, Weather by CustomWeather, © 2014

Note: Actual official high and low records may vary slightly from our data, if they occured in-between our weather recording intervals... More about our weather records

Advertising

Tacoma weather history for previous 24 hours

 ConditionsComfort  
Time TempWeatherWind HumidityBarometerVisibility
7:53 PM
Jan 30
41 °FFog.No wind96%30.27 "Hg0 mi
6:53 PM41 °FFog.No wind96%30.28 "Hg1 mi
6:01 PM42 °FFog.No wind92%30.27 "Hg1 mi
4:53 PM42 °FFog.No wind89%30.29 "Hg2 mi
3:53 PM44 °FFog.No wind85%30.29 "Hg2 mi
2:53 PM44 °FFog.No wind85%30.29 "Hg2 mi
1:53 PM43 °FFog.No wind89%30.28 "Hg2 mi
12:53 PM43 °FFog.5 mph89%30.29 "Hg2 mi
11:53 AM43 °FFog.No wind89%30.30 "Hg1 mi
10:53 AM42 °FFog.No wind92%30.32 "Hg1 mi
9:53 AM41 °FFog.No wind96%30.32 "Hg1 mi
8:53 AM41 °FFog.No wind96%30.33 "Hg2 mi
7:53 AM41 °FFog.No wind96%30.32 "Hg2 mi
7:04 AM41 °FFog.3 mph96%30.32 "Hg6 mi
6:53 AM41 °FFog.5 mph96%30.32 "Hg5 mi
5:53 AM40 °FFog.3 mph93%30.31 "Hg4 mi
5:03 AM42 °FLow clouds.No wind96%30.31 "Hg10 mi
4:53 AM41 °FLow clouds.3 mph96%30.32 "Hg8 mi
3:53 AM41 °FLow clouds.3 mph96%30.32 "Hg10 mi
3:00 AM40 °FFog.No wind100%30.32 "Hg1 mi
2:03 AM38 °FFog.No wind90%30.32 "Hg3 mi
1:53 AM37 °FFog.No wind93%30.32 "Hg2 mi
12:53 AM40 °FClear.No wind89%30.30 "Hg10 mi
11:53 PM
Jan 29
40 °FClear.No wind89%30.31 "Hg10 mi
10:53 PM41 °FClear.No wind89%30.31 "Hg10 mi
9:53 PM44 °FClear.5 mph82%30.31 "Hg10 mi
Weather by CustomWeather, © 2014

See weather overviewHow to use our weather pages